Location: *
(46.1866°S, 178.5290°W)
Time: 09:39:01
(UTC+00:00)

ATLAS CENTAUR R/B - Pass Details

Date: 19 May 2021
Orbit: 472 x 671 km, 64.6° (Epoch: 13 June)

Event Time Altitude Azimuth Distance (km) Brightness Sun altitude
Rises 05:38:23 0° 214° (SW) 2,868 5.2 -12.1°
Reaches altitude 10° 05:40:47 10° 209° (SSW) 1,924 4.3 -12.5°
Maximum altitude 05:45:00 50° 132° (SE) 720 1.5 -13.2°
Enters shadow 05:48:33 12° 57° (ENE) 1,650 3.4 -13.8°
